Location: Trébons-de-Luchon
(42.8036°N, 0.5656°E)
Time: 02:35:19
(UTC+02:00)

ISS - Visible Passes

Search period start: 02 October 2022 00:00
Search period end: 12 October 2022 00:00
Orbit: 416 x 420 km, 51.6° (Epoch: 01 October)

Date Brightness Start Highest point End Pass type
(mag) Time Alt. Az. Time Alt. Az. Time Alt. Az.
02 Oct -3.3 21:19:40 10° WNW 21:22:59 54° SW 21:23:18 51° SSW visible
03 Oct -3.8 20:31:48 10° WNW 20:35:11 90° SE 20:37:39 17° SE visible
03 Oct -0.6 22:10:13 10° WSW 22:10:36 11° WSW 22:10:36 11° WSW visible
04 Oct -1.5 21:21:29 10° W 21:23:59 20° SW 21:25:13 16° SSW visible
05 Oct -2.1 20:33:29 10° WNW 20:36:33 32° SW 20:39:36 10° SSE visible
07 Oct -0.7 20:36:54 10° WSW 20:38:13 12° SW 20:39:31 10° SSW visible
